Zurück zum Katalog

STARLINK-1221

AktivKommunikationVLEO
NORAD 45227·PAYLOAD·🇺🇸 United States

Gestartet Feb 17, 2020 von Cape Canaveral Space Force Station

Loading…

Nächste Überflüge (nächste 24 Stunden)

TLE

AktuellSource: CelesTrak SupGP

Epoche: Sep 15, 2026, 01:21 UTC

1 45227C 20012BB  26258.05673611  .00029451  00000+0  50078-3 0  2588
2 45227  53.0601  87.2316 0002241 195.8052 201.8697 15.50808737    11

Verfolge STARLINK-1221 in Echtzeit mit AllMySat

Download on the App Store